Weather in Slobodka

Russia / Ryazan Oblast     54°10′48″N   39°16′12″E
temp.,
°C
wind,
m/s
gust,
m/s
humid.,
%
clouds,
%
prec.,
mm/h
press.,
hPa
HPBL,
m
2 march, tue
tue200:000w71392100 0.0 1017698
03:00+1w71493100 0.0 1015642
06:00+1w71494100 0.0 1011701
09:00+1w61496100 0.0 1010608
12:00+1wnw61297100 0.1 1009692
15:00+1wnw51194100 0.3 1009685
18:000nw5119497 0.3 1009563
21:00−2nw4129189 0.4 1010357
3 march, wed
wed300:00−2nw6139199 0.1 1011623
03:00−4nw61392100 0.2 1012540
06:00−5nw6149095 0.1 1014586
09:00−6nw7158789 0.1 1016689
12:00−3nw6128317 0.0 1016818
15:00−1wnw510849 0.0 1016889
18:00−2wnw6128992 0.1 1015549
21:00−2w5119095 0.1 1016555
4 march, thu
thu400:00−2w51190100 0.1 1014502
03:00−2w5118996 0.1 1013622
06:00−2wsw71588100 0.0 1010470
09:00−1wsw91787100 0.0 1007529
12:00+1wsw91778100 0.0 1003811
15:00+1wsw91782100 0.0 1002866
18:00+1wsw71589100 0.0 1000796
21:00+1w51298100 0.1 1001591
5 march, fri
fri500:000nw4897100 0.5 1001421
03:00−4nnw3487100 0.7 100384
06:00−4nnw2491100 0.0 1005111
09:00−5n2291100 0.0 1006129
12:00−4ne1184100 0.0 1007288
15:00−3ene2285100 0.0 1007360
18:00−4ne2393100 0.1 100775
21:00−5nne2296100 0.2 100787
6 march, sat
sat600:00−6n3595100 0.1 1008159
03:00−7nnw3695100 0.1 1009138
06:00−8nw359691 0.0 1010130
09:00−8wnw369579 0.1 1011271
12:00−6wnw4691100 0.4 1011511
15:00−5nw4781100 0.8 1012898
18:00−8wnw339183 0.1 101291
21:00−10w358975 0.2 101398